This demonstration page uses our WeatherBlox Daily Observations layout. Learn more.

Left ArrowRight Arrow

Hourly Observations for September 13, 2022

Temp ( °F °C ) Dew Point ( °F °C ) Humidity (%) Winds ( mph kmh ) Pressure ( in mb ) Visibility ( mi km ) Precip ( " mm )
12:15 am 00:15 Cloudy 59 15 54 12 82 82 W 12 19 29.82 1010 10 16 0.00 0.00
12:35 am 00:35 Cloudy 59 15 54 12 82 82 W 8 13 29.82 1010 10 16 0.00 0.00
12:55 am 00:55 Cloudy 59 15 55 13 88 88 W 9 15 29.82 1010 10 16 0.00 0.00
1:15 am 01:15 Cloudy 59 15 55 13 88 88 W 12 19 29.81 1010 10 16 0.00 0.00
1:35 am 01:35 Cloudy 57 14 55 13 94 94 WSW 9 15 29.82 1010 10 16 0.00 0.00
1:55 am 01:55 Cloudy 59 15 57 14 94 94 W 10 17 29.81 1010 10 16 0.00 0.00
2:15 am 02:15 Cloudy 59 15 57 14 94 94 W 8 13 29.82 1010 10 16 0.00 0.00
2:35 am 02:35 Cloudy 59 15 57 14 94 94 W 7 11 29.82 1010 10 16 0.00 0.00
2:55 am 02:55 Cloudy 57 14 57 14 100 100 W 8 13 29.83 1010 10 16 0.00 0.00
3:15 am 03:15 Cloudy 57 14 57 14 100 100 W 7 11 29.83 1010 10 16 0.00 0.00
3:35 am 03:35 Cloudy 59 15 57 14 94 94 W 9 15 29.82 1010 10 16 0.00 0.00
3:55 am 03:55 Cloudy 57 14 57 14 100 100 WNW 7 11 29.84 1010 10 16 0.00 0.00
4:15 am 04:15 Mostly Cloudy 55 13 55 13 100 100 WNW 7 11 29.84 1011 10 16 0.00 0.00
4:35 am 04:35 Mostly Cloudy 55 13 55 13 100 100 WNW 9 15 29.84 1011 10 16 0.00 0.00
4:55 am 04:55 Clear 54 12 54 12 100 100 W 6 9 29.84 1011 10 16 0.00 0.00
5:15 am 05:15 Clear 54 12 54 12 100 100 W 6 9 29.84 1011 10 16 0.00 0.00
5:35 am 05:35 Partly Cloudy 54 12 54 12 100 100 W 8 13 29.84 1011 10 16 0.00 0.00
5:55 am 05:55 Mostly Cloudy 54 12 54 12 100 100 W 6 9 29.85 1011 10 16 0.00 0.00
6:15 am 06:15 Cloudy 54 12 54 12 100 100 W 6 9 29.85 1011 10 16 0.00 0.00
6:35 am 06:35 Mostly Cloudy 54 12 54 12 100 100 WSW 6 9 29.87 1011 10 16 0.00 0.00
6:55 am 06:55 Mostly Cloudy 54 12 54 12 100 100 WSW 5 7 29.87 1011 7 11 0.00 0.00
7:15 am 07:15 Mostly Cloudy 54 12 54 12 100 100 W 6 9 29.87 1012 10 16 0.00 0.00
7:35 am 07:35 Cloudy 55 13 55 13 100 100 W 6 9 29.88 1012 10 16 0.00 0.00
7:55 am 07:55 Cloudy 55 13 55 13 100 100 W 5 7 29.89 1012 10 16 0.00 0.00
8:15 am 08:15 Cloudy 55 13 55 13 100 100 W 6 9 29.89 1012 10 16 0.00 0.00
8:35 am 08:35 Cloudy 55 13 55 13 100 100 W 7 11 29.90 1013 10 16 0.00 0.00
8:55 am 08:55 Mostly Cloudy 57 14 55 13 94 94 W 7 11 29.90 1012 10 16 0.00 0.00
9:15 am 09:15 Mostly Cloudy 59 15 55 13 88 88 W 5 7 29.91 1013 10 16 0.00 0.00
9:35 am 09:35 Mostly Cloudy 59 15 57 14 94 94 W 8 13 29.91 1013 10 16 0.00 0.00
9:55 am 09:55 Partly Cloudy 61 16 55 13 82 82 W 6 9 29.91 1013 10 16 0.00 0.00
10:15 am 10:15 Mostly Cloudy 61 16 57 14 88 88 W 7 11 29.92 1013 10 16 0.00 0.00
10:35 am 10:35 Mostly Cloudy 61 16 57 14 88 88 NW 7 11 29.93 1014 10 16 0.00 0.00
10:55 am 10:55 Mostly Cloudy 61 16 57 14 88 88 W 9 15 29.93 1014 10 16 0.00 0.00
11:15 am 11:15 Cloudy 61 16 57 14 88 88 W 6 9 29.93 1014 10 16 0.00 0.00
11:35 am 11:35 Cloudy 61 16 57 14 88 88 WSW 5 7 29.95 1014 10 16 0.00 0.00
11:55 am 11:55 Cloudy 64 18 59 15 83 83 WSW 6 9 29.93 1013 10 16 0.00 0.00
12:15 pm 12:15 Cloudy 63 17 59 15 88 88 WNW 6 9 29.93 1014 10 16 0.00 0.00
12:35 pm 12:35 Cloudy 63 17 59 15 88 88 W 7 11 29.94 1014 10 16 0.00 0.00
12:55 pm 12:55 Cloudy 64 18 59 15 83 83 W 8 13 29.93 1014 10 16 0.00 0.00
1:15 pm 13:15 Cloudy 64 18 59 15 83 83 W 8 13 29.93 1014 10 16 0.00 0.00
1:35 pm 13:35 Cloudy 64 18 59 15 83 83 WSW 3 6 29.94 1014 10 16 0.00 0.00
1:55 pm 13:55 Cloudy 64 18 59 15 83 83 WSW 7 11 29.94 1014 10 16 0.00 0.00
2:15 pm 14:15 Cloudy 64 18 59 15 83 83 SW 6 9 29.94 1014 10 16 0.00 0.00
2:35 pm 14:35 Cloudy 64 18 59 15 83 83 SW 5 7 29.94 1014 10 16 0.00 0.00
2:55 pm 14:55 Cloudy 64 18 61 16 88 88 SW 6 9 29.94 1014 10 16 0.00 0.00
3:15 pm 15:15 Cloudy 64 18 61 16 88 88 WSW 7 11 29.94 1014 10 16 0.00 0.00
3:35 pm 15:35 Cloudy 64 18 61 16 88 88 W 8 13 29.93 1014 10 16 0.00 0.00
3:55 pm 15:55 Cloudy 64 18 61 16 88 88 W 8 13 29.93 1014 10 16 0.00 0.00
4:15 pm 16:15 Cloudy 64 18 63 17 94 94 WNW 8 13 29.94 1014 10 16 0.00 0.00
4:35 pm 16:35 Cloudy 66 19 63 17 88 88 W 5 7 29.94 1014 10 16 0.00 0.00
4:55 pm 16:55 Cloudy 66 19 63 17 88 88 WNW 5 7 29.94 1014 10 16 0.00 0.00
5:15 pm 17:15 Cloudy 66 19 61 16 83 83 Calm 29.94 1014 10 16 0.00 0.00
5:35 pm 17:35 Cloudy 66 19 61 16 83 83 W 5 7 29.95 1014 10 16 0.00 0.00
5:55 pm 17:55 Cloudy 68 20 63 17 83 83 SSW 3 6 29.95 1014 10 16 0.00 0.00
6:15 pm 18:15 Cloudy 68 20 61 16 78 78 Calm 29.96 1014 10 16 0.00 0.00
6:35 pm 18:35 Cloudy 66 19 61 16 83 83 Calm 29.97 1015 10 16 0.00 0.00
6:55 pm 18:55 Cloudy 66 19 63 17 88 88 SSE 3 6 29.97 1015 10 16 0.00 0.00
7:15 pm 19:15 Cloudy 66 19 63 17 88 88 Calm 29.97 1015 10 16 0.00 0.00
7:35 pm 19:35 Cloudy 64 18 63 17 94 94 S 3 6 29.98 1015 10 16 0.00 0.00
7:55 pm 19:55 Cloudy 64 18 64 18 100 100 Calm 29.98 1015 10 16 0.00 0.00
8:15 pm 20:15 Mostly Cloudy 63 17 63 17 100 100 Calm 29.98 1015 10 16 0.00 0.00
8:35 pm 20:35 Cloudy 63 17 63 17 100 100 Calm 29.99 1016 10 16 0.00 0.00
8:55 pm 20:55 Cloudy 63 17 63 17 100 100 Calm 30.00 1016 10 16 0.00 0.00
9:15 pm 21:15 Cloudy 63 17 63 17 100 100 Calm 30.00 1016 10 16 0.00 0.00
9:35 pm 21:35 Cloudy 63 17 63 17 100 100 Calm 30.01 1016 10 16 0.00 0.00
9:55 pm 21:55 Cloudy 63 17 63 17 100 100 Calm 30.01 1016 10 16 0.00 0.00
10:15 pm 22:15 Cloudy 63 17 63 17 100 100 S 3 6 30.01 1016 10 16 0.00 0.00
10:35 pm 22:35 Partly Cloudy 61 16 61 16 100 100 SW 3 6 30.01 1016 10 16 0.00 0.00
10:55 pm 22:55 Clear 61 16 61 16 100 100 SW 3 6 30.02 1017 10 16 0.00 0.00
11:15 pm 23:15 Clear 59 15 59 15 100 100 Calm 30.02 1017 10 16 0.00 0.00
11:35 pm 23:35 Clear 57 14 57 14 100 100 Calm 30.03 1017 10 16 0.00 0.00
11:55 pm 23:55 Clear 57 14 57 14 100 100 Calm 30.04 1017 7 11 0.00 0.00

Powered by AerisWeather